EN

Hourly Weather Olszak

Today, 16 May, Sunday

Time Temperature Precipitation Wind Pressure Humidity
00:00 +11°C° 0.1 mm 3 mps 748 mmHg 91%
01:00 +11°C° 0.1 mm 3 mps 748 mmHg 91%
02:00 +10°C° 0 mm 3 mps 748 mmHg 92%
03:00 +10°C° 0 mm 3 mps 748 mmHg 92%
04:00 +10°C° 0 mm 3 mps 748 mmHg 93%
05:00 +10°C° 0 mm 4 mps 748 mmHg 91%
06:00 +11°C° 0 mm 4 mps 748 mmHg 89%
07:00 +12°C° 0 mm 5 mps 748 mmHg 86%
08:00 +12°C° 0.1 mm 4 mps 748 mmHg 81%
09:00 +13°C° 0.1 mm 4 mps 748 mmHg 75%
10:00 +14°C° 0.1 mm 4 mps 748 mmHg 69%
11:00 +14°C° 0.1 mm 4 mps 748 mmHg 66%
12:00 +15°C° 0.1 mm 4 mps 748 mmHg 64%
13:00 +15°C° 0.1 mm 4 mps 748 mmHg 61%
14:00 +15°C° 0.1 mm 4 mps 748 mmHg 61%
15:00 +15°C° 0.1 mm 4 mps 748 mmHg 61%
16:00 +15°C° 0.1 mm 4 mps 748 mmHg 61%
17:00 +14°C° 0 mm 3 mps 748 mmHg 66%
18:00 +14°C° 0 mm 2 mps 748 mmHg 72%
19:00 +14°C° 0 mm 1 mps 747 mmHg 77%
20:00 +12°C° 0 mm 1 mps 748 mmHg 80%
21:00 +10°C° 0 mm 2 mps 748 mmHg 83%
22:00 +9°C° 0 mm 2 mps 748 mmHg 86%
23:00 +9°C° 0 mm 2 mps 748 mmHg 87%

Tomorrow, 17 May, Monday

Time Temperature Precipitation Wind Pressure Humidity
00:00 +9°C° 0 mm 2 mps 747 mmHg 88%
01:00 +8°C° 0 mm 3 mps 747 mmHg 89%
02:00 +8°C° 0 mm 3 mps 747 mmHg 90%
03:00 +8°C° 0 mm 3 mps 747 mmHg 91%
04:00 +8°C° 0 mm 3 mps 747 mmHg 92%
05:00 +9°C° 0 mm 3 mps 747 mmHg 87%
06:00 +11°C° 0 mm 3 mps 748 mmHg 82%
07:00 +12°C° 0 mm 3 mps 748 mmHg 77%
08:00 +12°C° 0.1 mm 3 mps 748 mmHg 76%
09:00 +13°C° 0.1 mm 3 mps 748 mmHg 75%
10:00 +14°C° 0.1 mm 2 mps 748 mmHg 74%
11:00 +14°C° 0.6 mm 2 mps 748 mmHg 76%
12:00 +14°C° 0.6 mm 2 mps 748 mmHg 78%
13:00 +14°C° 0.6 mm 1 mps 748 mmHg 80%
14:00 +14°C° 0.2 mm 1 mps 748 mmHg 78%
15:00 +15°C° 0.2 mm 2 mps 748 mmHg 76%
16:00 +15°C° 0.2 mm 2 mps 748 mmHg 75%
17:00 +14°C° 0.2 mm 2 mps 748 mmHg 78%
18:00 +14°C° 0.2 mm 1 mps 748 mmHg 82%
19:00 +13°C° 0.2 mm 1 mps 748 mmHg 86%
20:00 +12°C° 0 mm 1 mps 748 mmHg 88%
21:00 +12°C° 0 mm 1 mps 748 mmHg 90%
22:00 +11°C° 0 mm 1 mps 748 mmHg 92%
23:00 +11°C° 0 mm 1 mps 748 mmHg 92%

Day after tomorrow, 18 May, Tuesday

Time Temperature Precipitation Wind Pressure Humidity
00:00 +11°C° 0 mm 1 mps 748 mmHg 92%
01:00 +11°C° 0 mm 1 mps 748 mmHg 93%
02:00 +10°C° 0 mm 1 mps 748 mmHg 94%
03:00 +10°C° 0 mm 1 mps 748 mmHg 95%
04:00 +9°C° 0 mm 2 mps 748 mmHg 95%
05:00 +9°C° 0.1 mm 2 mps 749 mmHg 93%
06:00 +10°C° 0.1 mm 2 mps 749 mmHg 91%
07:00 +12°C° 0.1 mm 2 mps 749 mmHg 89%
08:00 +11°C° 0.1 mm 3 mps 749 mmHg 86%
09:00 +12°C° 0.1 mm 4 mps 749 mmHg 83%
10:00 +13°C° 0.1 mm 5 mps 749 mmHg 80%
11:00 +13°C° 0.2 mm 5 mps 750 mmHg 81%
12:00 +12°C° 0.2 mm 5 mps 750 mmHg 81%
13:00 +12°C° 0.2 mm 5 mps 750 mmHg 81%
14:00 +12°C° 0.1 mm 5 mps 750 mmHg 79%
15:00 +11°C° 0.1 mm 6 mps 751 mmHg 77%
16:00 +11°C° 0.1 mm 6 mps 751 mmHg 75%
17:00 +10°C° 0 mm 5 mps 751 mmHg 77%
18:00 +10°C° 0 mm 5 mps 751 mmHg 80%
19:00 +9°C° 0 mm 5 mps 751 mmHg 82%
20:00 +9°C° 0 mm 5 mps 751 mmHg 85%
21:00 +8°C° 0 mm 5 mps 752 mmHg 89%
22:00 +7°C° 0 mm 5 mps 752 mmHg 92%
23:00 +7°C° 0 mm 5 mps 752 mmHg 92%

19 May, Wednesday

Time Temperature Precipitation Wind Pressure Humidity
00:00 +7°C° 0 mm 5 mps 752 mmHg 91%
01:00 +7°C° 0 mm 5 mps 752 mmHg 91%
02:00 +7°C° 0 mm 5 mps 753 mmHg 92%
03:00 +6°C° 0 mm 5 mps 753 mmHg 94%
04:00 +6°C° 0 mm 4 mps 753 mmHg 95%
05:00 +7°C° 0 mm 5 mps 753 mmHg 90%
06:00 +8°C° 0 mm 5 mps 754 mmHg 85%
07:00 +9°C° 0 mm 6 mps 754 mmHg 80%
08:00 +10°C° 0 mm 6 mps 754 mmHg 75%
09:00 +11°C° 0 mm 6 mps 754 mmHg 69%
10:00 +13°C° 0 mm 6 mps 754 mmHg 64%
11:00 +13°C° 0 mm 6 mps 754 mmHg 63%
12:00 +13°C° 0 mm 6 mps 755 mmHg 61%
13:00 +13°C° 0 mm 6 mps 755 mmHg 59%
14:00 +13°C° 0 mm 6 mps 755 mmHg 60%
15:00 +13°C° 0 mm 6 mps 755 mmHg 61%
16:00 +13°C° 0 mm 5 mps 755 mmHg 62%
17:00 +12°C° 0.1 mm 4 mps 754 mmHg 68%
18:00 +11°C° 0.1 mm 4 mps 754 mmHg 75%
19:00 +10°C° 0.1 mm 3 mps 754 mmHg 81%
20:00 +9°C° 0 mm 3 mps 754 mmHg 85%
21:00 +9°C° 0 mm 3 mps 754 mmHg 89%
22:00 +7°C° 0 mm 4 mps 754 mmHg 93%
23:00 +7°C° 0 mm 4 mps 754 mmHg 93%

20 May, Thursday

Time Temperature Precipitation Wind Pressure Humidity
00:00 +7°C° 0 mm 5 mps 754 mmHg 94%
01:00 +7°C° 0 mm 5 mps 754 mmHg 94%
02:00 +5°C° 0 mm 6 mps 754 mmHg 94%
03:00 +5°C° 0 mm 6 mps 754 mmHg 93%
04:00 +5°C° 0 mm 6 mps 755 mmHg 93%
05:00 +5°C° 0 mm 6 mps 755 mmHg 90%
06:00 +5°C° 0 mm 6 mps 755 mmHg 86%
07:00 +5°C° 0 mm 7 mps 755 mmHg 83%
08:00 +6°C° 0 mm 7 mps 755 mmHg 79%
09:00 +8°C° 0 mm 7 mps 755 mmHg 75%
10:00 +9°C° 0 mm 7 mps 755 mmHg 71%
11:00 +9°C° 0.1 mm 7 mps 755 mmHg 69%
12:00 +10°C° 0.1 mm 7 mps 754 mmHg 68%
13:00 +10°C° 0.1 mm 7 mps 754 mmHg 66%
14:00 +11°C° 0.1 mm 6 mps 754 mmHg 63%
15:00 +11°C° 0.1 mm 6 mps 754 mmHg 60%
16:00 +13°C° 0.1 mm 5 mps 754 mmHg 57%
17:00 +12°C° 0 mm 4 mps 753 mmHg 63%
18:00 +11°C° 0 mm 3 mps 753 mmHg 69%
19:00 +10°C° 0 mm 2 mps 753 mmHg 75%
20:00 +10°C° 0 mm 2 mps 752 mmHg 80%
21:00 +9°C° 0 mm 3 mps 752 mmHg 84%
22:00 +8°C° 0 mm 3 mps 751 mmHg 89%
23:00 +8°C° 0.1 mm 3 mps 751 mmHg 88%

21 May, Friday

Time Temperature Precipitation Wind Pressure Humidity
00:00 +8°C° 0.1 mm 4 mps 750 mmHg 88%
01:00 +8°C° 0.1 mm 4 mps 750 mmHg 87%
02:00 +8°C° 0.5 mm 4 mps 749 mmHg 89%
03:00 +8°C° 0.5 mm 5 mps 748 mmHg 91%
04:00 +8°C° 0.5 mm 5 mps 747 mmHg 93%
05:00 +8°C° 0.6 mm 5 mps 747 mmHg 93%
06:00 +8°C° 0.6 mm 6 mps 747 mmHg 94%
07:00 +9°C° 0.6 mm 6 mps 746 mmHg 94%
08:00 +9°C° 0.2 mm 6 mps 747 mmHg 92%
09:00 +9°C° 0.2 mm 6 mps 747 mmHg 90%
10:00 +9°C° 0.2 mm 6 mps 747 mmHg 89%
11:00 +9°C° 0.2 mm 6 mps 747 mmHg 89%
12:00 +8°C° 0.2 mm 6 mps 747 mmHg 90%
13:00 +8°C° 0.2 mm 6 mps 748 mmHg 91%
14:00 +8°C° 0.1 mm 6 mps 748 mmHg 89%
15:00 +9°C° 0.1 mm 6 mps 748 mmHg 88%
16:00 +9°C° 0.1 mm 6 mps 748 mmHg 86%
17:00 +8°C° 0.4 mm 6 mps 747 mmHg 89%
18:00 +8°C° 0.4 mm 6 mps 747 mmHg 92%
19:00 +7°C° 0.4 mm 6 mps 747 mmHg 94%
20:00 +6°C° 0.2 mm 7 mps 748 mmHg 94%
21:00 +6°C° 0.2 mm 8 mps 748 mmHg 94%
22:00 +6°C° 0.2 mm 8 mps 749 mmHg 95%
23:00 +6°C° 0.1 mm 8 mps 750 mmHg 92%
Show more

We Need Your Consent

Meteoprog and our Service Providers may store and access personal data such as cookies, device identifiers or other similar technologies on your device and process such data to personalise content and ads, as well as provide social media features and to analyse the traffic.

  • Store and/or access information on your device

    Cookies, device identifiers or other information can be stored or accessed on your device for the purposes indicated above.

  • Personalised ads and content, ad and content measurement, audience insights, and products development

    Ads and content can be personalised based on a profile. More data can be added to better personalise ads and content. Ad and content performance can be measured. Insights about the audience who saw the ads and content can be derived. Such data can be used to develop or improve user’s experience, systems and software.

By clicking ‘I Agree’ you will allow the use of indicated cookies, device identifiers, web beacons or other similar technologies. Your settings can be changed in the browser on your device.

For certain purposes, legitimate interests may be relied on, rather than consent. You can read more about this in our Privacy and Cookie Policy.